[[{"header":{"parameterUnit":"m.s-1","parameterCategory":1,"la1":30.2991,"la2":30.254,"lo1":-89.0895,"lo2":-89.0444,"dy":0.0017,"dx":0.0017,"nx":28,"ny":28,"refTime":"2025-01-15T03:00:00:Z","depth":0,"parameterNumber":2,"parameterNumberName":"U-component_of_WINDS"},"data":[0,0,0,0,0,0,0,0,0,0,0,0,0,0,0,0,0,0,0,0,0,0,0,0,0,0,0,0,0,0,0,0,0,0,0,0,0,0,0,0,0,0,0,0,0,0,0,0,0,0,0,0,0,0,0,0,0,0,-4.6328,-4.6329,0,-4.6412,-4.6413,-4.6414,-4.6287,-4.6283,-4.6278,-4.6274,-4.6366,-4.6372,-4.6379,0,0,0,0,0,0,0,0,0,0,0,0,0,-4.6063,-4.6068,-4.6328,-4.6329,-4.633,-4.6411,-4.6413,-4.6414,-4.6288,-4.6283,-4.6277,-4.6272,-4.6364,-4.6372,-4.638,0,0,0,0,0,0,0,0,0,0,0,0,0,-4.6166,-4.607,-4.6327,-4.6277,-4.6273,-4.6411,-4.6413,-4.6414,-4.6289,-4.6282,-4.6276,-4.627,-4.6361,-4.6371,-4.6381,-4.6574,0,0,-4.6411,-4.6415,0,0,0,0,0,0,0,0,-4.616,-4.6175,-4.6283,-4.628,-4.6276,-4.6332,-4.6353,-4.6468,-4.6291,-4.6283,-4.6274,-4.6266,-4.636,-4.637,-4.64,-4.6579,-4.6583,-4.6412,-4.6418,-4.6422,-4.6425,0,0,0,0,0,0,0,-4.6153,-4.6171,-4.6361,-4.6285,-4.6281,-4.6251,-4.6258,-4.6374,-4.6358,-4.6283,-4.6274,-4.6286,-4.6357,-4.6391,-4.6402,-4.6584,-4.6411,-4.642,-4.6426,-4.643,-4.6925,-4.6932,0,0,0,0,0,0,-4.6151,-4.6166,-4.6358,-4.6363,-4.62,-4.6261,-4.6269,-4.6321,-4.6357,-4.6355,-4.6291,-4.6279,-4.6378,-4.639,-4.6405,-4.6634,-4.6422,-4.6431,-4.6437,-4.6918,-4.6927,-4.6935,0,0,0,0,0,0,-4.6146,-4.6169,-4.6355,-4.6262,-4.6283,-4.6273,-4.6332,-4.6326,-4.636,-4.6362,-4.6359,-4.6329,-4.6373,-4.6391,-4.6533,-4.6636,-4.6435,-4.6444,-4.691,-4.6921,-4.6931,-4.7095,0,0,0,0,0,0,-4.6139,-4.6168,-4.6241,-4.6265,-4.6289,-4.6481,-4.6338,-4.6333,-4.6376,-4.6362,-4.6397,-4.6396,-4.6369,-4.6519,-4.6543,-4.6646,-4.6452,-4.6901,-4.6915,-4.6928,-4.7081,-4.711,-4.7136,0,0,0,0,0,-4.613,-4.6285,-4.6245,-4.6269,-4.6379,-4.6487,-4.6501,-4.6465,-4.6385,-4.6459,-4.646,-4.6395,-4.662,-4.6534,-4.656,-4.6668,-4.6894,-4.6911,-4.6926,-4.7068,-4.7105,-4.7135,0,0,0,0,0,0,-4.6277,-4.6288,-4.6244,-4.6411,-4.6449,-4.6466,-4.6558,-4.6505,-4.6568,-4.6552,-4.6506,-4.6515,-4.6667,-4.6681,-4.6586,-4.6857,-4.6744,-4.6766,-4.6843,-4.6877,-4.6904,-4.6899,-4.646,0,0,0,0,0,-4.6328,-4.6413,-4.6418,-4.6566,-4.6587,-4.6569,-4.6615,-4.6583,-4.6622,-4.6638,-4.6649,-4.6691,-4.677,-4.6824,-4.6898,-4.7081,-4.7088,-4.7168,-4.7195,-4.7218,-4.7239,-4.7337,-4.7373,-4.6988,-4.6988,-4.6988,0,0,-4.6436,-4.6452,-4.6509,-4.6596,-4.6621,-4.6712,-4.6584,-4.6685,-4.6752,-4.6654,-4.6788,-4.6799,-4.6841,-4.7005,-4.7078,-4.7021,-4.7346,-4.7239,-4.7257,-4.7265,-4.7358,-4.7394,-4.7427,-4.6999,-4.6997,-4.6996,0,0,-4.6679,-4.67,-4.6825,-4.6852,-4.6892,-4.6879,-4.6909,-4.6933,-4.6936,-4.7069,-4.6997,-4.7077,-4.7215,-4.7249,-4.7284,-4.7538,-4.7481,-4.7563,-4.7709,-4.7805,-4.7836,-4.7862,-4.7954,-4.7988,-4.7583,-4.7584,-4.7584,0,-4.681,-4.6941,-4.6896,-4.7002,-4.7043,-4.6955,-4.7082,-4.7111,-4.7174,-4.7205,-4.714,-4.7311,-4.7333,-4.7504,-4.7566,-4.7597,-4.7631,-4.756,-4.7834,-4.7861,-4.7885,-4.7972,-4.8007,-4.7593,-4.7592,-4.7591,-4.759,0,-4.71,-4.7192,-4.7289,-4.7349,-4.74,-4.7517,-4.749,-4.7548,-4.7511,-4.7506,-4.7643,-4.7667,-4.7743,-4.7781,-4.7748,-4.7947,-4.7911,-4.7841,-4.7727,-4.7932,-4.8014,-4.8047,-4.7608,-4.7604,-4.7601,-4.7599,0,0,-4.7441,-4.7472,-4.7509,-4.7535,-4.7571,-4.7643,-4.7755,-4.7828,-4.7879,-4.7924,-4.8019,-4.8136,-4.8071,-4.8112,-4.8081,-4.8165,-4.8367,-4.8085,-4.8085,-4.8138,-4.8589,-4.8643,-4.8683,-4.8327,-4.8333,-4.8338,-4.8586,0,-4.7684,-4.7876,-4.7838,-4.8027,-4.8112,-4.8029,-4.8127,-4.8161,-4.8158,-4.8231,-4.8228,-4.8313,-4.822,-4.8244,-4.8324,-4.8325,-4.8457,-4.8306,-4.8417,-4.8421,-4.8411,-4.8725,-4.8782,-4.9015,-4.8618,-4.8623,-4.8627,0,-4.7995,-4.805,-4.8247,-4.8268,-4.8303,-4.8391,-4.8455,-4.8525,-4.8562,-4.8554,-4.8598,-4.855,-4.8663,-4.8546,-4.8701,-4.86,-4.8642,-4.865,-4.8658,-4.8669,-4.8538,-4.8746,-4.9088,-4.9124,-4.8676,-4.8672,-4.8669,0,-4.8225,-4.8349,-4.8482,-4.8507,-4.8535,-4.86,-4.8615,-4.8644,-4.8691,-4.8746,-4.8776,-4.8845,-4.8884,-4.8939,-4.8912,-4.8828,-4.9074,-4.8953,-4.9072,-4.9073,-4.9129,-4.9127,-4.9485,-4.9154,-4.9153,-4.9152,-4.9152,0,-4.8502,-4.8627,-4.8586,-4.8669,-4.8805,-4.876,-4.8897,-4.8903,-4.893,-4.9013,-4.8945,-4.9025,-4.8983,-4.9061,-4.904,-4.9173,-4.9191,-4.9189,-4.9182,-4.9196,-4.9197,-4.9225,-4.9209,-4.9162,-4.916,-4.9158,-4.9156,0,-4.8785,-4.8762,-4.8902,-4.8917,-4.8923,-4.9024,-4.9037,-4.9115,-4.9105,-4.9211,-4.9234,-4.9221,-4.9308,-4.9285,-4.9381,-4.9367,-4.9535,-4.9507,-4.9523,-4.9517,-4.9637,-4.9627,-5.0029,-5.008,-4.9713,-4.9717,-4.972,0,-4.8964,-4.9057,-4.9081,-4.9131,-4.915,-4.9232,-4.9277,-4.9236,-4.9288,-4.9335,-4.9408,-4.9488,-4.9551,-4.9694,-4.9694,-4.9767,-4.9742,-4.9877,-4.9753,-4.9763,-4.9746,-4.9741,-4.9751,-4.9903,-4.9907,-4.9911,-4.9914,0,-4.9285,-4.9269,-4.9337,-4.9401,-4.9457,-4.9507,-4.955,-4.9595,-4.9557,-4.9618,-4.9705,-4.9753,-4.9849,-4.9931,-4.9997,-5.0014,-4.996,-4.9952,-4.9984,-5.0,-5.0006,-5.0006,-4.9593,-4.9944,-4.9941,-4.9939,-4.9937,-4.9936,-4.9523,-4.9602,-4.963,-4.9708,-4.9735,-4.9777,-4.985,-4.9849,-4.9921,-4.9995,-4.9966,-5.0067,-5.01,-5.0183,-5.0209,-5.0287,-5.0236,-5.0282,-5.0294,-5.0306,-5.0322,-4.9991,-5.0299,-5.0298,-5.0298,-5.0297,-5.0296,0,-4.9842,-4.9855,-4.9927,-4.9988,-5.005,-4.9989,-5.0033,-5.0089,-5.0178,-5.0213,-5.0275,-5.0375,-5.0454,-5.0459,-5.0533,-5.0595,-5.0572,-5.0616,-5.0612,-5.0617,-5.0363,-5.0329,-5.0634,-5.0634,-5.0634,-5.0634,-5.0634,-5.0633,-5.0015,-5.0146,-5.0133,-5.0276,-5.0289,-5.0385,-5.0416,-5.0454,-5.0482,-5.0596,-5.066,-5.0662,-5.0686,-5.076,-5.083,-5.0829,-5.0861,-5.0916,-5.0906,-5.0669,-5.0635,-5.0603,-5.0571,-5.0922,-5.0923,-5.1154,-5.1156,-5.1158]},{"header":{"parameterUnit":"m.s-1","parameterCategory":1,"la1":30.2991,"la2":30.254,"lo1":-89.0895,"lo2":-89.0444,"dy":0.0017,"dx":0.0017,"nx":28,"ny":28,"refTime":"2025-01-15T03:00:00:Z","depth":0,"parameterNumber":3,"parameterNumberName":"V-component_of_WINDS"},"data":[0,0,0,0,0,0,0,0,0,0,0,0,0,0,0,0,0,0,0,0,0,0,0,0,0,0,0,0,0,0,0,0,0,0,0,0,0,0,0,0,0,0,0,0,0,0,0,0,0,0,0,0,0,0,0,0,0,0,-1.0871,-1.0871,0,-1.0857,-1.0857,-1.0857,-1.0829,-1.0828,-1.0828,-1.0827,-1.0814,-1.0815,-1.0815,0,0,0,0,0,0,0,0,0,0,0,0,0,-1.0874,-1.0875,-1.0871,-1.0871,-1.0871,-1.0857,-1.0857,-1.0857,-1.0829,-1.0828,-1.0828,-1.0827,-1.0814,-1.0815,-1.0815,0,0,0,0,0,0,0,0,0,0,0,0,0,-1.0868,-1.0875,-1.0871,-1.0855,-1.0854,-1.0857,-1.0857,-1.0857,-1.0829,-1.0828,-1.0827,-1.0827,-1.0814,-1.0815,-1.0815,-1.0833,0,0,-1.0816,-1.0816,0,0,0,0,0,0,0,0,-1.0868,-1.0868,-1.0858,-1.0856,-1.0855,-1.0844,-1.0853,-1.0849,-1.0829,-1.0839,-1.0827,-1.0826,-1.0825,-1.0824,-1.0824,-1.0833,-1.0832,-1.0816,-1.0816,-1.0816,-1.0816,0,0,0,0,0,0,0,-1.0869,-1.0868,-1.0866,-1.0858,-1.0856,-1.0849,-1.0847,-1.0852,-1.0837,-1.0838,-1.0836,-1.0834,-1.0824,-1.0823,-1.0823,-1.0832,-1.0816,-1.0816,-1.0816,-1.0816,-1.0854,-1.0855,0,0,0,0,0,0,-1.0872,-1.0869,-1.0866,-1.0865,-1.086,-1.085,-1.0847,-1.0848,-1.0837,-1.0834,-1.0835,-1.0833,-1.0823,-1.0823,-1.0823,-1.0843,-1.0816,-1.0816,-1.0816,-1.0853,-1.0854,-1.0855,0,0,0,0,0,0,-1.0872,-1.0872,-1.0867,-1.0867,-1.0865,-1.085,-1.0851,-1.0848,-1.0848,-1.0834,-1.0832,-1.0837,-1.0823,-1.0822,-1.083,-1.0842,-1.0816,-1.0817,-1.0852,-1.0854,-1.0855,-1.0884,0,0,0,0,0,0,-1.0872,-1.0872,-1.0879,-1.0867,-1.0866,-1.0875,-1.0852,-1.0849,-1.0848,-1.0845,-1.0836,-1.0833,-1.0822,-1.083,-1.0831,-1.0842,-1.0817,-1.0851,-1.0853,-1.0855,-1.0882,-1.0886,-1.089,0,0,0,0,0,-1.0872,-1.0888,-1.0879,-1.0879,-1.0874,-1.0876,-1.0875,-1.0861,-1.0849,-1.0856,-1.0847,-1.0834,-1.084,-1.0831,-1.0832,-1.0843,-1.0851,-1.0853,-1.0854,-1.088,-1.0886,-1.089,0,0,0,0,0,0,-1.0903,-1.0886,-1.0876,-1.0889,-1.0884,-1.0871,-1.0879,-1.0867,-1.0865,-1.0863,-1.0846,-1.0844,-1.0855,-1.085,-1.084,-1.086,-1.0843,-1.0845,-1.0863,-1.0868,-1.0872,-1.0873,-1.0817,0,0,0,0,0,-1.0911,-1.0913,-1.0899,-1.0912,-1.0909,-1.0895,-1.0895,-1.0884,-1.0879,-1.0877,-1.0868,-1.0864,-1.0864,-1.0866,-1.0866,-1.0881,-1.0878,-1.0889,-1.0893,-1.0896,-1.0898,-1.0905,-1.091,-1.0862,-1.0862,-1.0862,0,0,-1.0928,-1.0919,-1.0922,-1.0917,-1.0912,-1.0915,-1.0893,-1.0898,-1.09,-1.0877,-1.0885,-1.0878,-1.0872,-1.0883,-1.0888,-1.0879,-1.0911,-1.0898,-1.0901,-1.0902,-1.0908,-1.0912,-1.0916,-1.0863,-1.0863,-1.0862,0,0,-1.0961,-1.0954,-1.0964,-1.0959,-1.095,-1.094,-1.0942,-1.0931,-1.0926,-1.0932,-1.0915,-1.0917,-1.092,-1.0915,-1.0914,-1.0943,-1.093,-1.0943,-1.0964,-1.0971,-1.0975,-1.0978,-1.0988,-1.0992,-1.0945,-1.0945,-1.0945,0,-1.0983,-1.0987,-1.097,-1.0976,-1.0974,-1.0952,-1.0961,-1.0957,-1.095,-1.0949,-1.0939,-1.0941,-1.0935,-1.0945,-1.0952,-1.0951,-1.0953,-1.0945,-1.0975,-1.0978,-1.0981,-1.0991,-1.0995,-1.0947,-1.0947,-1.0947,-1.0946,0,-1.1015,-1.1018,-1.1026,-1.1019,-1.1018,-1.1025,-1.1009,-1.101,-1.0999,-1.099,-1.0997,-1.0988,-1.0986,-1.0988,-1.0977,-1.0996,-1.0991,-1.0978,-1.0962,-1.0988,-1.0997,-1.1,-1.0949,-1.0949,-1.0948,-1.0948,0,0,-1.1069,-1.105,-1.1054,-1.105,-1.1038,-1.104,-1.1046,-1.1043,-1.1044,-1.1039,-1.1044,-1.1045,-1.1033,-1.1031,-1.102,-1.1026,-1.1049,-1.1012,-1.1012,-1.102,-1.1069,-1.1079,-1.1083,-1.104,-1.1041,-1.1041,-1.1069,0,-1.1099,-1.1108,-1.1092,-1.1105,-1.1107,-1.1086,-1.1091,-1.1084,-1.1075,-1.1076,-1.1066,-1.1067,-1.1051,-1.105,-1.1055,-1.1045,-1.1059,-1.1043,-1.1045,-1.1045,-1.1048,-1.1088,-1.1099,-1.1126,-1.1073,-1.1073,-1.1074,0,-1.1137,-1.1133,-1.1145,-1.1132,-1.1132,-1.1137,-1.1132,-1.1133,-1.1125,-1.1118,-1.1115,-1.1101,-1.1106,-1.1088,-1.1095,-1.1084,-1.1084,-1.1079,-1.108,-1.108,-1.1062,-1.109,-1.1134,-1.1138,-1.1079,-1.1078,-1.1078,0,-1.1175,-1.1172,-1.1179,-1.1176,-1.1161,-1.1165,-1.1159,-1.115,-1.1148,-1.1144,-1.1143,-1.114,-1.1138,-1.1136,-1.1122,-1.111,-1.1129,-1.1111,-1.1124,-1.1125,-1.113,-1.113,-1.1175,-1.1129,-1.1129,-1.1129,-1.1129,0,-1.1211,-1.122,-1.1196,-1.1201,-1.1209,-1.1191,-1.12,-1.1191,-1.1183,-1.1186,-1.1167,-1.117,-1.115,-1.115,-1.1139,-1.1146,-1.1145,-1.114,-1.1137,-1.1142,-1.1143,-1.1142,-1.114,-1.113,-1.1129,-1.1129,-1.1129,0,-1.1256,-1.124,-1.1246,-1.1231,-1.1227,-1.1234,-1.122,-1.1224,-1.1213,-1.1216,-1.1216,-1.1199,-1.1199,-1.1183,-1.118,-1.1172,-1.1184,-1.1177,-1.1187,-1.1185,-1.1199,-1.1198,-1.1246,-1.1251,-1.1201,-1.1201,-1.1202,0,-1.1281,-1.1287,-1.1271,-1.1271,-1.1265,-1.1265,-1.1263,-1.1245,-1.1244,-1.1234,-1.1239,-1.1236,-1.1234,-1.1234,-1.1222,-1.1219,-1.1212,-1.1229,-1.1212,-1.1216,-1.1213,-1.1213,-1.1213,-1.1233,-1.1234,-1.1234,-1.1235,0,-1.1326,-1.1318,-1.1316,-1.131,-1.1308,-1.1304,-1.1298,-1.1299,-1.1278,-1.1278,-1.1277,-1.1274,-1.127,-1.1268,-1.1263,-1.1256,-1.1242,-1.124,-1.1243,-1.1249,-1.1254,-1.1251,-1.1198,-1.1239,-1.1239,-1.1238,-1.1238,-1.1238,-1.1362,-1.1366,-1.1355,-1.1353,-1.1346,-1.1341,-1.1343,-1.1331,-1.133,-1.1325,-1.1313,-1.1314,-1.1304,-1.1295,-1.129,-1.129,-1.1282,-1.1286,-1.1287,-1.1289,-1.1292,-1.1253,-1.1289,-1.1289,-1.1289,-1.1289,-1.1289,0,-1.1407,-1.1398,-1.1396,-1.1388,-1.1386,-1.1371,-1.1364,-1.1364,-1.1364,-1.1356,-1.1353,-1.1351,-1.1349,-1.1336,-1.1332,-1.1334,-1.1328,-1.1334,-1.1334,-1.1333,-1.1299,-1.1297,-1.1339,-1.1339,-1.1339,-1.1339,-1.1339,-1.1339,-1.143,-1.1435,-1.1425,-1.1427,-1.1419,-1.1418,-1.1415,-1.141,-1.1403,-1.1402,-1.1399,-1.139,-1.138,-1.1375,-1.1372,-1.1368,-1.1368,-1.1377,-1.1371,-1.134,-1.1335,-1.1331,-1.1329,-1.1377,-1.1377,-1.1404,-1.1405,-1.1405]}]]